Year,Month,Day,Hour,Minute,Value (Times are PST for temperature in C)
2008,03,05,00,00,2.60
2008,03,05,00,01,2.60
2008,03,05,00,02,2.50
2008,03,05,00,03,2.50
2008,03,05,00,04,2.40
2008,03,05,00,05,2.40
2008,03,05,00,06,2.40
2008,03,05,00,07,2.30
2008,03,05,00,08,2.30
2008,03,05,00,09,2.30
2008,03,05,00,10,2.30
2008,03,05,00,11,2.20
2008,03,05,00,12,2.20
2008,03,05,00,13,2.20
2008,03,05,00,14,2.20
2008,03,05,00,15,2.20
2008,03,05,00,16,2.20
2008,03,05,00,17,2.20
2008,03,05,00,18,2.20
2008,03,05,00,19,2.20
2008,03,05,00,20,2.20
2008,03,05,00,21,2.20
2008,03,05,00,22,2.20
2008,03,05,00,23,2.20
2008,03,05,00,24,2.20
2008,03,05,00,25,2.10
2008,03,05,00,26,2.10
2008,03,05,00,27,2.10
2008,03,05,00,28,2.00
2008,03,05,00,29,2.00
2008,03,05,00,30,2.00
2008,03,05,00,31,2.10
2008,03,05,00,32,2.10
2008,03,05,00,33,2.10
2008,03,05,00,34,2.00
2008,03,05,00,35,2.00
2008,03,05,00,36,2.00
2008,03,05,00,37,2.00
2008,03,05,00,38,2.00
2008,03,05,00,39,2.00
2008,03,05,00,40,2.10
2008,03,05,00,41,2.10
2008,03,05,00,42,2.10
2008,03,05,00,43,2.20
2008,03,05,00,44,2.20
2008,03,05,00,45,2.20
2008,03,05,00,46,2.30
2008,03,05,00,47,2.30
2008,03,05,00,48,2.50
2008,03,05,00,49,2.60
2008,03,05,00,50,2.70
2008,03,05,00,51,2.80
2008,03,05,00,52,2.90
2008,03,05,00,53,3.00
2008,03,05,00,54,3.10
2008,03,05,00,55,3.10
2008,03,05,00,56,3.20
2008,03,05,00,57,3.20
2008,03,05,00,58,3.30
2008,03,05,00,59,3.30
2008,03,05,01,00,3.30
2008,03,05,01,01,3.40
2008,03,05,01,02,3.40
2008,03,05,01,03,3.50
2008,03,05,01,04,3.50
2008,03,05,01,05,3.50
2008,03,05,01,06,3.60
2008,03,05,01,07,3.60
2008,03,05,01,08,3.60
2008,03,05,01,09,3.70
2008,03,05,01,10,3.70
2008,03,05,01,11,3.70
2008,03,05,01,12,3.60
2008,03,05,01,13,3.50
2008,03,05,01,14,3.40
2008,03,05,01,15,3.30
2008,03,05,01,16,3.20
2008,03,05,01,17,3.10
2008,03,05,01,18,3.00
2008,03,05,01,19,2.90
2008,03,05,01,20,2.80
2008,03,05,01,21,2.80
2008,03,05,01,22,2.70
2008,03,05,01,23,2.60
2008,03,05,01,24,2.60
2008,03,05,01,25,2.50
2008,03,05,01,26,2.50
2008,03,05,01,27,2.40
2008,03,05,01,28,2.40
2008,03,05,01,29,2.30
2008,03,05,01,30,2.30
2008,03,05,01,31,2.20
2008,03,05,01,32,2.20
2008,03,05,01,33,2.20
2008,03,05,01,34,2.10
2008,03,05,01,35,2.10
2008,03,05,01,36,2.00
2008,03,05,01,37,2.00
2008,03,05,01,38,1.90
2008,03,05,01,39,1.90
2008,03,05,01,40,1.90
2008,03,05,01,41,1.80
2008,03,05,01,42,1.80
2008,03,05,01,43,1.80
2008,03,05,01,44,1.80
2008,03,05,01,45,1.70
2008,03,05,01,46,1.70
2008,03,05,01,47,1.70
2008,03,05,01,48,1.70
2008,03,05,01,49,1.60
2008,03,05,01,50,1.60
2008,03,05,01,51,1.60
2008,03,05,01,52,1.50
2008,03,05,01,53,1.50
2008,03,05,01,54,1.50
2008,03,05,01,55,1.40
2008,03,05,01,56,1.30
2008,03,05,01,57,1.30
2008,03,05,01,58,1.30
2008,03,05,01,59,1.30
2008,03,05,02,00,1.30
2008,03,05,02,01,1.30
2008,03,05,02,02,1.30
2008,03,05,02,03,1.30
2008,03,05,02,04,1.30
2008,03,05,02,05,1.30
2008,03,05,02,06,1.30
2008,03,05,02,07,1.30
2008,03,05,02,08,1.30
2008,03,05,02,09,1.20
2008,03,05,02,10,1.20
2008,03,05,02,11,1.20
2008,03,05,02,12,1.20
2008,03,05,02,13,1.10
2008,03,05,02,14,1.10
2008,03,05,02,15,1.10
2008,03,05,02,16,1.00
2008,03,05,02,17,1.00
2008,03,05,02,18,1.00
2008,03,05,02,19,1.00
2008,03,05,02,20,0.90
2008,03,05,02,21,0.90
2008,03,05,02,22,0.90
2008,03,05,02,23,0.90
2008,03,05,02,24,0.90
2008,03,05,02,25,0.90
2008,03,05,02,26,0.80
2008,03,05,02,27,0.80
2008,03,05,02,28,0.80
2008,03,05,02,29,0.80
2008,03,05,02,30,0.80
2008,03,05,02,31,0.80
2008,03,05,02,32,0.80
2008,03,05,02,33,0.80
2008,03,05,02,34,0.80
2008,03,05,02,35,0.70
2008,03,05,02,36,0.70
2008,03,05,02,37,0.70
2008,03,05,02,38,0.70
2008,03,05,02,39,0.70
2008,03,05,02,40,0.70
2008,03,05,02,41,0.70
2008,03,05,02,42,0.70
2008,03,05,02,43,0.70
2008,03,05,02,44,0.70
2008,03,05,02,45,0.70
2008,03,05,02,46,0.70
2008,03,05,02,47,0.70
2008,03,05,02,48,0.70
2008,03,05,02,49,0.70
2008,03,05,02,50,0.70
2008,03,05,02,51,0.70
2008,03,05,02,52,0.70
2008,03,05,02,53,0.70
2008,03,05,02,54,0.70
2008,03,05,02,55,0.70
2008,03,05,02,56,0.70
2008,03,05,02,57,0.70
2008,03,05,02,58,0.70
2008,03,05,02,59,0.70
2008,03,05,03,00,0.70
2008,03,05,03,01,0.80
2008,03,05,03,02,0.80
2008,03,05,03,03,0.80
2008,03,05,03,04,0.80
2008,03,05,03,05,0.90
2008,03,05,03,06,0.90
2008,03,05,03,07,0.90
2008,03,05,03,08,0.90
2008,03,05,03,09,0.90
2008,03,05,03,10,0.90
2008,03,05,03,11,0.90
2008,03,05,03,12,0.90
2008,03,05,03,13,0.90
2008,03,05,03,14,0.90
2008,03,05,03,15,0.80
2008,03,05,03,16,0.80
2008,03,05,03,17,0.80
2008,03,05,03,18,0.80
2008,03,05,03,19,0.80
2008,03,05,03,20,0.70
2008,03,05,03,21,0.70
2008,03,05,03,22,0.70
2008,03,05,03,23,0.70
2008,03,05,03,24,0.70
2008,03,05,03,25,0.70
2008,03,05,03,26,0.70
2008,03,05,03,27,0.60
2008,03,05,03,28,0.60
2008,03,05,03,29,0.60
2008,03,05,03,30,0.60
2008,03,05,03,31,0.60
2008,03,05,03,32,0.60
2008,03,05,03,33,0.60
2008,03,05,03,34,0.70
2008,03,05,03,35,0.60
2008,03,05,03,36,0.60
2008,03,05,03,37,0.60
2008,03,05,03,38,0.60
2008,03,05,03,39,0.60
2008,03,05,03,40,0.60
2008,03,05,03,41,0.60
2008,03,05,03,42,0.50
2008,03,05,03,43,0.60
2008,03,05,03,44,0.60
2008,03,05,03,45,0.60
2008,03,05,03,46,0.60
2008,03,05,03,47,0.60
2008,03,05,03,48,0.60
2008,03,05,03,49,0.60
2008,03,05,03,50,0.60
2008,03,05,03,51,0.70
2008,03,05,03,52,0.70
2008,03,05,03,53,0.70
2008,03,05,03,54,0.70
2008,03,05,03,55,0.70
2008,03,05,03,56,0.70
2008,03,05,03,57,0.70
2008,03,05,03,58,0.70
2008,03,05,03,59,0.70
2008,03,05,04,00,0.70
2008,03,05,04,01,0.70
2008,03,05,04,02,0.70
2008,03,05,04,03,0.70
2008,03,05,04,04,0.70
2008,03,05,04,05,0.70
2008,03,05,04,06,0.70
2008,03,05,04,07,0.70
2008,03,05,04,08,0.70
2008,03,05,04,09,0.60
2008,03,05,04,10,0.60
2008,03,05,04,11,0.60
2008,03,05,04,12,0.60
2008,03,05,04,13,0.60
2008,03,05,04,14,0.60
2008,03,05,04,15,0.60
2008,03,05,04,16,0.50
2008,03,05,04,17,0.50
2008,03,05,04,18,0.50
2008,03,05,04,19,0.50
2008,03,05,04,20,0.50
2008,03,05,04,21,0.50
2008,03,05,04,22,0.40
2008,03,05,04,23,0.40
2008,03,05,04,24,0.40
2008,03,05,04,25,0.40
2008,03,05,04,26,0.40
2008,03,05,04,27,0.40
2008,03,05,04,28,0.40
2008,03,05,04,29,0.30
2008,03,05,04,30,0.30
2008,03,05,04,31,0.30
2008,03,05,04,32,0.30
2008,03,05,04,33,0.30
2008,03,05,04,34,0.30
2008,03,05,04,35,0.30
2008,03,05,04,36,0.30
2008,03,05,04,37,0.30
2008,03,05,04,38,0.30
2008,03,05,04,39,0.30
2008,03,05,04,40,0.30
2008,03,05,04,41,0.40
2008,03,05,04,42,0.40
2008,03,05,04,43,0.40
2008,03,05,04,44,0.40
2008,03,05,04,45,0.40
2008,03,05,04,46,0.40
2008,03,05,04,47,0.40
2008,03,05,04,48,0.40
2008,03,05,04,49,0.40
2008,03,05,04,50,0.50
2008,03,05,04,51,0.40
2008,03,05,04,52,0.50
2008,03,05,04,53,0.50
2008,03,05,04,54,0.40
2008,03,05,04,55,0.40
2008,03,05,04,56,0.40
2008,03,05,04,57,0.40
2008,03,05,04,58,0.40
2008,03,05,04,59,0.40
2008,03,05,05,00,0.40
2008,03,05,05,01,0.40
2008,03,05,05,02,0.40
2008,03,05,05,03,0.40
2008,03,05,05,04,0.40
2008,03,05,05,05,0.40
2008,03,05,05,06,0.40
2008,03,05,05,07,0.40
2008,03,05,05,08,0.40
2008,03,05,05,09,0.40
2008,03,05,05,10,0.30
2008,03,05,05,11,0.30
2008,03,05,05,12,0.30
2008,03,05,05,13,0.30
2008,03,05,05,14,0.30
2008,03,05,05,15,0.30
2008,03,05,05,16,0.30
2008,03,05,05,17,0.30
2008,03,05,05,18,0.20
2008,03,05,05,19,0.20
2008,03,05,05,20,0.30
2008,03,05,05,21,0.30
2008,03,05,05,22,0.30
2008,03,05,05,23,0.30
2008,03,05,05,24,0.30
2008,03,05,05,25,0.40
2008,03,05,05,26,0.40
2008,03,05,05,27,0.40
2008,03,05,05,28,0.40
2008,03,05,05,29,0.40
2008,03,05,05,30,0.40
2008,03,05,05,31,0.30
2008,03,05,05,32,0.30
2008,03,05,05,33,0.30
2008,03,05,05,34,0.30
2008,03,05,05,35,0.30
2008,03,05,05,36,0.30
2008,03,05,05,37,0.30
2008,03,05,05,38,0.20
2008,03,05,05,39,0.20
2008,03,05,05,40,0.20
2008,03,05,05,41,0.20
2008,03,05,05,42,0.20
2008,03,05,05,43,0.20
2008,03,05,05,44,0.20
2008,03,05,05,45,0.30
2008,03,05,05,46,0.20
2008,03,05,05,47,0.20
2008,03,05,05,48,0.20
2008,03,05,05,49,0.20
2008,03,05,05,50,0.20
2008,03,05,05,51,0.20
2008,03,05,05,52,0.10
2008,03,05,05,53,0.10
2008,03,05,05,54,0.10
2008,03,05,05,55,0.10
2008,03,05,05,56,0.10
2008,03,05,05,57,0.10
2008,03,05,05,58,0.10
2008,03,05,05,59,0.10
2008,03,05,06,00,0.10
2008,03,05,06,01,0.20
2008,03,05,06,02,0.20
2008,03,05,06,03,0.20
2008,03,05,06,04,0.20
2008,03,05,06,05,0.20
2008,03,05,06,06,0.20
2008,03,05,06,07,0.20
2008,03,05,06,08,0.20
2008,03,05,06,09,0.20
2008,03,05,06,10,0.20
2008,03,05,06,11,0.20
2008,03,05,06,12,0.20
2008,03,05,06,13,0.30
2008,03,05,06,14,0.30
2008,03,05,06,15,0.30
2008,03,05,06,16,0.30
2008,03,05,06,17,0.30
2008,03,05,06,18,0.30
2008,03,05,06,19,0.30
2008,03,05,06,20,0.30
2008,03,05,06,21,0.30
2008,03,05,06,22,0.30
2008,03,05,06,23,0.20
2008,03,05,06,24,0.20
2008,03,05,06,25,0.20
2008,03,05,06,26,0.20
2008,03,05,06,27,0.20
2008,03,05,06,28,0.20
2008,03,05,06,29,0.10
2008,03,05,06,30,0.10
2008,03,05,06,31,0.10
2008,03,05,06,32,0.10
2008,03,05,06,33,0.10
2008,03,05,06,34,0.10
2008,03,05,06,35,0.10
2008,03,05,06,36,0.10
2008,03,05,06,37,0.10
2008,03,05,06,38,0.20
2008,03,05,06,39,0.20
2008,03,05,06,40,0.30
2008,03,05,06,41,0.30
2008,03,05,06,42,0.30
2008,03,05,06,43,0.30
2008,03,05,06,44,0.30
2008,03,05,06,45,0.40
2008,03,05,06,46,0.40
2008,03,05,06,47,0.40
2008,03,05,06,48,0.40
2008,03,05,06,49,0.30
2008,03,05,06,50,0.30
2008,03,05,06,51,0.30
2008,03,05,06,52,0.30
2008,03,05,06,53,0.30
2008,03,05,06,54,0.30
2008,03,05,06,55,0.30
2008,03,05,06,56,0.30
2008,03,05,06,57,0.30
2008,03,05,06,58,0.30
2008,03,05,06,59,0.30
2008,03,05,07,00,0.30
2008,03,05,07,01,0.30
2008,03,05,07,02,0.30
2008,03,05,07,03,0.30
2008,03,05,07,04,0.30
2008,03,05,07,05,0.30
2008,03,05,07,06,0.30
2008,03,05,07,07,0.30
2008,03,05,07,08,0.30
2008,03,05,07,09,0.30
2008,03,05,07,10,0.30
2008,03,05,07,11,0.30
2008,03,05,07,12,0.30
2008,03,05,07,13,0.30
2008,03,05,07,14,0.30
2008,03,05,07,15,0.30
2008,03,05,07,16,0.40
2008,03,05,07,17,0.40
2008,03,05,07,18,0.40
2008,03,05,07,19,0.40
2008,03,05,07,20,0.50
2008,03,05,07,21,0.50
2008,03,05,07,22,0.60
2008,03,05,07,23,0.60
2008,03,05,07,24,0.60
2008,03,05,07,25,0.70
2008,03,05,07,26,0.70
2008,03,05,07,27,0.80
2008,03,05,07,28,0.80
2008,03,05,07,29,0.80
2008,03,05,07,30,0.90
2008,03,05,07,31,1.00
2008,03,05,07,32,1.00
2008,03,05,07,33,1.10
2008,03,05,07,34,1.10
2008,03,05,07,35,1.20
2008,03,05,07,36,1.20
2008,03,05,07,37,1.30
2008,03,05,07,38,1.30
2008,03,05,07,39,1.30
2008,03,05,07,40,1.30
2008,03,05,07,41,1.40
2008,03,05,07,42,1.40
2008,03,05,07,43,1.50
2008,03,05,07,44,1.60
2008,03,05,07,45,1.60
2008,03,05,07,46,1.70
2008,03,05,07,47,1.70
2008,03,05,07,48,1.80
2008,03,05,07,49,1.80
2008,03,05,07,50,1.90
2008,03,05,07,51,2.00
2008,03,05,07,52,2.10
2008,03,05,07,53,2.10
2008,03,05,07,54,2.20
2008,03,05,07,55,2.30
2008,03,05,07,56,2.30
2008,03,05,07,57,2.40
2008,03,05,07,58,2.50
2008,03,05,07,59,2.50
2008,03,05,08,00,2.60
2008,03,05,08,01,2.70
2008,03,05,08,02,2.70
2008,03,05,08,03,2.80
2008,03,05,08,04,2.80
2008,03,05,08,05,2.90
2008,03,05,08,06,2.90
2008,03,05,08,07,3.00
2008,03,05,08,08,3.10
2008,03,05,08,09,3.10
2008,03,05,08,10,3.20
2008,03,05,08,11,3.30
2008,03,05,08,12,3.30
2008,03,05,08,13,3.30
2008,03,05,08,14,3.40
2008,03,05,08,15,3.50
2008,03,05,08,16,3.50
2008,03,05,08,17,3.60
2008,03,05,08,18,3.70
2008,03,05,08,19,3.70
2008,03,05,08,20,3.80
2008,03,05,08,21,3.90
2008,03,05,08,22,3.90
2008,03,05,08,23,4.00
2008,03,05,08,24,4.10
2008,03,05,08,25,4.10
2008,03,05,08,26,4.10
2008,03,05,08,27,4.20
2008,03,05,08,28,4.20
2008,03,05,08,29,4.30
2008,03,05,08,30,4.30
2008,03,05,08,31,4.40
2008,03,05,08,32,4.40
2008,03,05,08,33,4.50
2008,03,05,08,34,4.50
2008,03,05,08,35,4.50
2008,03,05,08,36,4.50
2008,03,05,08,37,4.60
2008,03,05,08,38,4.60
2008,03,05,08,39,4.60
2008,03,05,08,40,4.70
2008,03,05,08,41,4.70
2008,03,05,08,42,4.70
2008,03,05,08,43,4.80
2008,03,05,08,44,4.80
2008,03,05,08,45,4.80
2008,03,05,08,46,4.80
2008,03,05,08,47,4.80
2008,03,05,08,48,4.80
2008,03,05,08,49,4.80
2008,03,05,08,50,4.80
2008,03,05,08,51,4.80
2008,03,05,08,52,4.80
2008,03,05,08,53,4.80
2008,03,05,08,54,4.80
2008,03,05,08,55,4.90
2008,03,05,08,56,4.90
2008,03,05,08,57,4.90
2008,03,05,08,58,5.00
2008,03,05,08,59,5.00
2008,03,05,09,00,5.00
2008,03,05,09,01,5.00
2008,03,05,09,02,5.10
2008,03,05,09,03,5.10
2008,03,05,09,04,5.10
2008,03,05,09,05,5.10
2008,03,05,09,06,5.10
2008,03,05,09,07,5.10
2008,03,05,09,08,5.10
2008,03,05,09,09,5.10
2008,03,05,09,10,5.20
2008,03,05,09,11,5.20
2008,03,05,09,12,5.20
2008,03,05,09,13,5.20
2008,03,05,09,14,5.20
2008,03,05,09,15,5.30
2008,03,05,09,16,5.30
2008,03,05,09,17,5.30
2008,03,05,09,18,5.40
2008,03,05,09,19,5.40
2008,03,05,09,20,5.40
2008,03,05,09,21,5.50
2008,03,05,09,22,5.50
2008,03,05,09,23,5.40
2008,03,05,09,24,5.30
2008,03,05,09,25,5.20
2008,03,05,09,26,5.20
2008,03,05,09,27,5.10
2008,03,05,09,28,5.20
2008,03,05,09,29,5.10
2008,03,05,09,30,5.20
2008,03,05,09,31,5.20
2008,03,05,09,32,5.20
2008,03,05,09,33,5.20
2008,03,05,09,34,5.10
2008,03,05,09,35,5.10
2008,03,05,09,36,5.10
2008,03,05,09,37,5.10
2008,03,05,09,38,5.10
2008,03,05,09,39,5.10
2008,03,05,09,40,5.10
2008,03,05,09,41,5.10
2008,03,05,09,42,5.20
2008,03,05,09,43,5.10
2008,03,05,09,44,5.00
2008,03,05,09,45,5.00
2008,03,05,09,46,4.90
2008,03,05,09,47,4.80
2008,03,05,09,48,4.70
2008,03,05,09,49,4.70
2008,03,05,09,50,4.70
2008,03,05,09,51,4.70
2008,03,05,09,52,4.70
2008,03,05,09,53,4.70
2008,03,05,09,54,4.70
2008,03,05,09,55,4.70
2008,03,05,09,56,4.80
2008,03,05,09,57,4.80
2008,03,05,09,58,4.90
2008,03,05,09,59,4.90
2008,03,05,10,00,5.00
2008,03,05,10,01,5.10
2008,03,05,10,02,5.10
2008,03,05,10,03,5.20
2008,03,05,10,04,5.20
2008,03,05,10,05,5.20
2008,03,05,10,06,5.30
2008,03,05,10,07,5.30
2008,03,05,10,08,5.20
2008,03,05,10,09,5.30
2008,03,05,10,10,5.30
2008,03,05,10,11,5.30
2008,03,05,10,12,5.30
2008,03,05,10,13,5.30
2008,03,05,10,14,5.30
2008,03,05,10,15,5.40
2008,03,05,10,16,5.30
2008,03,05,10,17,5.30
2008,03,05,10,18,5.30
2008,03,05,10,19,5.40
2008,03,05,10,20,5.40
2008,03,05,10,21,5.50
2008,03,05,10,22,5.60
2008,03,05,10,23,5.70
2008,03,05,10,24,5.70
2008,03,05,10,25,5.70
2008,03,05,10,26,5.80
2008,03,05,10,27,5.70
2008,03,05,10,28,5.70
2008,03,05,10,29,5.80
2008,03,05,10,30,5.80
2008,03,05,10,31,5.80
2008,03,05,10,32,5.90
2008,03,05,10,33,5.90
2008,03,05,10,34,5.90
2008,03,05,10,35,5.80
2008,03,05,10,36,5.80
2008,03,05,10,37,5.80
2008,03,05,10,38,5.90
2008,03,05,10,39,6.00
2008,03,05,10,40,6.00
2008,03,05,10,41,6.00
2008,03,05,10,42,6.10
2008,03,05,10,43,6.10
2008,03,05,10,44,6.10
2008,03,05,10,45,6.10
2008,03,05,10,46,6.20
2008,03,05,10,47,6.20
2008,03,05,10,48,6.30
2008,03,05,10,49,6.30
2008,03,05,10,50,6.20
2008,03,05,10,51,6.20
2008,03,05,10,52,6.30
2008,03,05,10,53,6.30
2008,03,05,10,54,6.30
2008,03,05,10,55,6.30
2008,03,05,10,56,6.30
2008,03,05,10,57,6.30
2008,03,05,10,58,6.30
2008,03,05,10,59,6.20
2008,03,05,11,00,6.30
2008,03,05,11,01,6.30
2008,03,05,11,02,6.40
2008,03,05,11,03,6.50
2008,03,05,11,04,6.50
2008,03,05,11,05,6.40
2008,03,05,11,06,6.40
2008,03,05,11,07,6.40
2008,03,05,11,08,6.50
2008,03,05,11,09,6.50
2008,03,05,11,10,6.60
2008,03,05,11,11,6.70
2008,03,05,11,12,6.70
2008,03,05,11,13,6.80
2008,03,05,11,14,6.80
2008,03,05,11,15,6.70
2008,03,05,11,16,6.60
2008,03,05,11,17,6.50
2008,03,05,11,18,6.50
2008,03,05,11,19,6.50
2008,03,05,11,20,6.60
2008,03,05,11,21,6.70
2008,03,05,11,22,6.70
2008,03,05,11,23,6.80
2008,03,05,11,24,6.70
2008,03,05,11,25,6.70
2008,03,05,11,26,6.70
2008,03,05,11,27,6.60
2008,03,05,11,28,6.60
2008,03,05,11,29,6.60
2008,03,05,11,30,6.60
2008,03,05,11,31,6.60
2008,03,05,11,32,6.60
2008,03,05,11,33,6.60
2008,03,05,11,34,6.60
2008,03,05,11,35,6.60
2008,03,05,11,36,6.60
2008,03,05,11,37,6.70
2008,03,05,11,38,6.70
2008,03,05,11,39,6.80
2008,03,05,11,40,6.80
2008,03,05,11,41,6.80
2008,03,05,11,42,6.90
2008,03,05,11,43,6.90
2008,03,05,11,44,6.90
2008,03,05,11,45,6.90
2008,03,05,11,46,7.00
2008,03,05,11,47,7.10
2008,03,05,11,48,7.10
2008,03,05,11,49,7.20
2008,03,05,11,50,7.20
2008,03,05,11,51,7.20
2008,03,05,11,52,7.30
2008,03,05,11,53,7.30
2008,03,05,11,54,7.40
2008,03,05,11,55,7.40
2008,03,05,11,56,7.40
2008,03,05,11,57,7.30
2008,03,05,11,58,7.30
2008,03,05,11,59,7.40
2008,03,05,12,00,7.50
2008,03,05,12,01,7.60
2008,03,05,12,02,7.70
2008,03,05,12,03,7.80
2008,03,05,12,04,7.90
2008,03,05,12,05,8.00
2008,03,05,12,06,8.00
2008,03,05,12,07,8.00
2008,03,05,12,08,8.00
2008,03,05,12,09,8.00
2008,03,05,12,10,7.90
2008,03,05,12,11,7.90
2008,03,05,12,12,8.00
2008,03,05,12,13,8.10
2008,03,05,12,14,8.10
2008,03,05,12,15,8.10
2008,03,05,12,16,8.10
2008,03,05,12,17,8.10
2008,03,05,12,18,8.10
2008,03,05,12,19,8.10
2008,03,05,12,20,8.10
2008,03,05,12,21,8.10
2008,03,05,12,22,8.20
2008,03,05,12,23,8.20
2008,03,05,12,24,8.20
2008,03,05,12,25,8.30
2008,03,05,12,26,8.30
2008,03,05,12,27,8.30
2008,03,05,12,28,8.40
2008,03,05,12,29,8.40
2008,03,05,12,30,8.50
2008,03,05,12,31,8.60
2008,03,05,12,32,8.60
2008,03,05,12,33,8.70
2008,03,05,12,34,8.70
2008,03,05,12,35,8.80
2008,03,05,12,36,8.70
2008,03,05,12,37,8.60
2008,03,05,12,38,8.50
2008,03,05,12,39,8.50
2008,03,05,12,40,8.50
2008,03,05,12,41,8.50
2008,03,05,12,42,8.50
2008,03,05,12,43,8.60
2008,03,05,12,44,8.60
2008,03,05,12,45,8.60
2008,03,05,12,46,8.60
2008,03,05,12,47,8.60
2008,03,05,12,48,8.70
2008,03,05,12,49,8.70
2008,03,05,12,50,8.70
2008,03,05,12,51,8.70
2008,03,05,12,52,8.80
2008,03,05,12,53,8.80
2008,03,05,12,54,8.90
2008,03,05,12,55,8.90
2008,03,05,12,56,8.90
2008,03,05,12,57,9.00
2008,03,05,12,58,9.00
2008,03,05,12,59,9.00
2008,03,05,13,00,8.90
2008,03,05,13,01,8.90
2008,03,05,13,02,8.80
2008,03,05,13,03,8.80
2008,03,05,13,04,8.70
2008,03,05,13,05,8.70
2008,03,05,13,06,8.80
2008,03,05,13,07,8.80
2008,03,05,13,08,8.90
2008,03,05,13,09,8.90
2008,03,05,13,10,9.00
2008,03,05,13,11,9.10
2008,03,05,13,12,9.10
2008,03,05,13,13,9.20
2008,03,05,13,14,9.20
2008,03,05,13,15,9.20
2008,03,05,13,16,9.20
2008,03,05,13,17,9.20
2008,03,05,13,18,9.10
2008,03,05,13,19,9.10
2008,03,05,13,20,9.20
2008,03,05,13,21,9.20
2008,03,05,13,22,9.20
2008,03,05,13,23,9.30
2008,03,05,13,24,9.30
2008,03,05,13,25,9.20
2008,03,05,13,26,9.10
2008,03,05,13,27,9.10
2008,03,05,13,28,9.10
2008,03,05,13,29,9.10
2008,03,05,13,30,9.00
2008,03,05,13,31,9.00
2008,03,05,13,32,9.00
2008,03,05,13,33,9.00
2008,03,05,13,34,9.10
2008,03,05,13,35,9.10
2008,03,05,13,36,9.10
2008,03,05,13,37,9.10
2008,03,05,13,38,9.20
2008,03,05,13,39,9.20
2008,03,05,13,40,9.30
2008,03,05,13,41,9.30
2008,03,05,13,42,9.40
2008,03,05,13,43,9.40
2008,03,05,13,44,9.50
2008,03,05,13,45,9.40
2008,03,05,13,46,9.40
2008,03,05,13,47,9.30
2008,03,05,13,48,9.30
2008,03,05,13,49,9.30
2008,03,05,13,50,9.30
2008,03,05,13,51,9.30
2008,03,05,13,52,9.20
2008,03,05,13,53,9.20
2008,03,05,13,54,9.30
2008,03,05,13,55,9.30
2008,03,05,13,56,9.30
2008,03,05,13,57,9.30
2008,03,05,13,58,9.30
2008,03,05,13,59,9.30
2008,03,05,14,00,9.20
2008,03,05,14,01,9.20
2008,03,05,14,02,9.20
2008,03,05,14,03,9.20
2008,03,05,14,04,9.10
2008,03,05,14,05,9.20
2008,03,05,14,06,9.20
2008,03,05,14,07,9.20
2008,03,05,14,08,9.30
2008,03,05,14,09,9.30
2008,03,05,14,10,9.30
2008,03,05,14,11,9.40
2008,03,05,14,12,9.40
2008,03,05,14,13,9.40
2008,03,05,14,14,9.40
2008,03,05,14,15,9.50
2008,03,05,14,16,9.50
2008,03,05,14,17,9.50
2008,03,05,14,18,9.50
2008,03,05,14,19,9.60
2008,03,05,14,20,9.60
2008,03,05,14,21,9.60
2008,03,05,14,22,9.60
2008,03,05,14,23,9.50
2008,03,05,14,24,9.50
2008,03,05,14,25,9.40
2008,03,05,14,26,9.40
2008,03,05,14,27,9.30
2008,03,05,14,28,9.30
2008,03,05,14,29,9.20
2008,03,05,14,30,9.10
2008,03,05,14,31,9.10
2008,03,05,14,32,9.10
2008,03,05,14,33,9.10
2008,03,05,14,34,9.10
2008,03,05,14,35,9.20
2008,03,05,14,36,9.20
2008,03,05,14,37,9.20
2008,03,05,14,38,9.20
2008,03,05,14,39,9.30
2008,03,05,14,40,9.30
2008,03,05,14,41,9.20
2008,03,05,14,42,9.20
2008,03,05,14,43,9.10
2008,03,05,14,44,9.10
2008,03,05,14,45,9.10
2008,03,05,14,46,9.20
2008,03,05,14,47,9.20
2008,03,05,14,48,9.30
2008,03,05,14,49,9.30
2008,03,05,14,50,9.30
2008,03,05,14,51,9.30
2008,03,05,14,52,9.30
2008,03,05,14,53,9.40
2008,03,05,14,54,9.30
2008,03,05,14,55,9.30
2008,03,05,14,56,9.20
2008,03,05,14,57,9.20
2008,03,05,14,58,9.20
2008,03,05,14,59,9.20
2008,03,05,15,00,9.20
2008,03,05,15,01,9.30
2008,03,05,15,02,9.30
2008,03,05,15,03,9.30
2008,03,05,15,04,9.30
2008,03,05,15,05,9.30
2008,03,05,15,06,9.30
2008,03,05,15,07,9.30
2008,03,05,15,08,9.30
2008,03,05,15,09,9.30
2008,03,05,15,10,9.30
2008,03,05,15,11,9.30
2008,03,05,15,12,9.30
2008,03,05,15,13,9.30
2008,03,05,15,14,9.30
2008,03,05,15,15,9.30
2008,03,05,15,16,9.30
2008,03,05,15,17,9.30
2008,03,05,15,18,9.30
2008,03,05,15,19,9.30
2008,03,05,15,20,9.30
2008,03,05,15,21,9.30
2008,03,05,15,22,9.30
2008,03,05,15,23,9.30
2008,03,05,15,24,9.30
2008,03,05,15,25,9.30
2008,03,05,15,26,9.30
2008,03,05,15,27,9.30
2008,03,05,15,28,9.30
2008,03,05,15,29,9.40
2008,03,05,15,30,9.50
2008,03,05,15,31,9.50
2008,03,05,15,32,9.50
2008,03,05,15,33,9.50
2008,03,05,15,34,9.40
2008,03,05,15,35,9.40
2008,03,05,15,36,9.30
2008,03,05,15,37,9.30
2008,03,05,15,38,9.30
2008,03,05,15,39,9.20
2008,03,05,15,40,9.20
2008,03,05,15,41,9.20
2008,03,05,15,42,9.20
2008,03,05,15,43,9.20
2008,03,05,15,44,9.20
2008,03,05,15,45,9.20
2008,03,05,15,46,9.20
2008,03,05,15,47,9.20
2008,03,05,15,48,9.20
2008,03,05,15,49,9.20
2008,03,05,15,50,9.20
2008,03,05,15,51,9.30
2008,03,05,15,52,9.30
2008,03,05,15,53,9.30
2008,03,05,15,54,9.30
2008,03,05,15,55,9.20
2008,03,05,15,56,9.20
2008,03,05,15,57,9.10
2008,03,05,15,58,9.10
2008,03,05,15,59,9.10
2008,03,05,16,00,9.10
2008,03,05,16,01,9.10
2008,03,05,16,02,9.10
2008,03,05,16,03,9.10
2008,03,05,16,04,9.10
2008,03,05,16,05,9.10
2008,03,05,16,06,9.20
2008,03,05,16,07,9.30
2008,03,05,16,08,9.30
2008,03,05,16,09,9.30
2008,03,05,16,10,9.30
2008,03,05,16,11,9.40
2008,03,05,16,12,9.40
2008,03,05,16,13,9.50
2008,03,05,16,14,9.50
2008,03,05,16,15,9.60
2008,03,05,16,16,9.60
2008,03,05,16,17,9.50
2008,03,05,16,18,9.40
2008,03,05,16,19,9.30
2008,03,05,16,20,9.30
2008,03,05,16,21,9.30
2008,03,05,16,22,9.20
2008,03,05,16,23,9.20
2008,03,05,16,24,9.10
2008,03,05,16,25,9.10
2008,03,05,16,26,9.00
2008,03,05,16,27,9.00
2008,03,05,16,28,8.90
2008,03,05,16,29,9.00
2008,03,05,16,30,9.00
2008,03,05,16,31,9.10
2008,03,05,16,32,9.20
2008,03,05,16,33,9.20
2008,03,05,16,34,9.30
2008,03,05,16,35,9.30
2008,03,05,16,36,9.30
2008,03,05,16,37,9.20
2008,03,05,16,38,9.10
2008,03,05,16,39,9.10
2008,03,05,16,40,9.00
2008,03,05,16,41,9.00
2008,03,05,16,42,8.90
2008,03,05,16,43,8.90
2008,03,05,16,44,8.90
2008,03,05,16,45,8.90
2008,03,05,16,46,9.00
2008,03,05,16,47,9.00
2008,03,05,16,48,8.90
2008,03,05,16,49,8.90
2008,03,05,16,50,8.90
2008,03,05,16,51,8.90
2008,03,05,16,52,8.90
2008,03,05,16,53,8.90
2008,03,05,16,54,8.90
2008,03,05,16,55,8.90
2008,03,05,16,56,8.90
2008,03,05,16,57,8.90
2008,03,05,16,58,8.90
2008,03,05,16,59,8.80
2008,03,05,17,00,8.80
2008,03,05,17,01,8.80
2008,03,05,17,02,8.80
2008,03,05,17,03,8.80
2008,03,05,17,04,8.80
2008,03,05,17,05,8.80
2008,03,05,17,06,8.80
2008,03,05,17,07,8.80
2008,03,05,17,08,8.80
2008,03,05,17,09,8.80
2008,03,05,17,10,8.80
2008,03,05,17,11,8.80
2008,03,05,17,12,8.80
2008,03,05,17,13,8.80
2008,03,05,17,14,8.80
2008,03,05,17,15,8.80
2008,03,05,17,16,8.80
2008,03,05,17,17,8.70
2008,03,05,17,18,8.70
2008,03,05,17,19,8.70
2008,03,05,17,20,8.60
2008,03,05,17,21,8.60
2008,03,05,17,22,8.60
2008,03,05,17,23,8.60
2008,03,05,17,24,8.60
2008,03,05,17,25,8.60
2008,03,05,17,26,8.60
2008,03,05,17,27,8.60
2008,03,05,17,28,8.60
2008,03,05,17,29,8.60
2008,03,05,17,30,8.60
2008,03,05,17,31,8.50
2008,03,05,17,32,8.50
2008,03,05,17,33,8.40
2008,03,05,17,34,8.40
2008,03,05,17,35,8.40
2008,03,05,17,36,8.30
2008,03,05,17,37,8.30
2008,03,05,17,38,8.30
2008,03,05,17,39,8.30
2008,03,05,17,40,8.20
2008,03,05,17,41,8.20
2008,03,05,17,42,8.20
2008,03,05,17,43,8.10
2008,03,05,17,44,8.10
2008,03,05,17,45,8.10
2008,03,05,17,46,8.10
2008,03,05,17,47,8.00
2008,03,05,17,48,8.00
2008,03,05,17,49,8.00
2008,03,05,17,50,7.90
2008,03,05,17,51,7.90
2008,03,05,17,52,7.90
2008,03,05,17,53,7.90
2008,03,05,17,54,7.90
2008,03,05,17,55,7.90
2008,03,05,17,56,7.90
2008,03,05,17,57,7.80
2008,03,05,17,58,7.80
2008,03,05,17,59,7.80
2008,03,05,18,00,7.80
2008,03,05,18,01,7.80
2008,03,05,18,02,7.70
2008,03,05,18,03,7.70
2008,03,05,18,04,7.70
2008,03,05,18,05,7.70
2008,03,05,18,06,7.70